When you browse on this site, cookies collect data to enhance your experience and personalize the content and advertising you see.
Visit our Privacy Policy to learn more. By continuing to use the site, you agree to this use of cookies and data.
  • En España
  • Lista de países
  • Para 7 días
  • Temperatura del agua
  • Mapa Satelital
  • El tiempo en el mapa
  • Informadores
  • user-avatar
    Iniciar sesión

    Tiempo cada hora Veliko Tarnovo

    Hoy, 18 Noviembre, Domingo

    Tiempo Temperatura Precipitaciones Viento Presión Humedad
    00:00 -1°C° 0 mm 2 mps 748 mmHg 81%
    01:00 -1°C° 0 mm 2 mps 748 mmHg 81%
    02:00 -1°C° 0 mm 2 mps 748 mmHg 81%
    03:00 +1°C° 0 mm 2 mps 748 mmHg 81%
    04:00 +1°C° 0 mm 2 mps 747 mmHg 81%
    05:00 +1°C° 0 mm 2 mps 747 mmHg 81%
    06:00 +1°C° 0 mm 2 mps 747 mmHg 80%
    07:00 +1°C° 0 mm 2 mps 746 mmHg 80%
    08:00 +1°C° 0 mm 2 mps 746 mmHg 80%
    09:00 +2°C° 0 mm 2 mps 746 mmHg 78%
    10:00 +3°C° 0 mm 2 mps 746 mmHg 76%
    11:00 +3°C° 0 mm 2 mps 745 mmHg 74%
    12:00 +4°C° 0 mm 2 mps 745 mmHg 74%
    13:00 +5°C° 0 mm 2 mps 744 mmHg 73%
    14:00 +4°C° 0 mm 3 mps 743 mmHg 72%
    15:00 +4°C° 0.3 mm 3 mps 742 mmHg 75%
    16:00 +5°C° 0.3 mm 2 mps 742 mmHg 78%
    17:00 +4°C° 0.3 mm 2 mps 741 mmHg 81%
    18:00 +4°C° 1.1 mm 2 mps 741 mmHg 83%
    19:00 +3°C° 1.1 mm 3 mps 740 mmHg 85%
    20:00 +3°C° 1.1 mm 3 mps 740 mmHg 87%
    21:00 +3°C° 1.5 mm 3 mps 739 mmHg 88%
    22:00 +3°C° 1.5 mm 3 mps 738 mmHg 89%
    23:00 +3°C° 1.5 mm 3 mps 738 mmHg 90%

    Mañana, 19 Noviembre, Lunes

    Tiempo Temperatura Precipitaciones Viento Presión Humedad
    00:00 +4°C° 1.4 mm 3 mps 737 mmHg 90%
    01:00 +4°C° 1.4 mm 3 mps 737 mmHg 91%
    02:00 +4°C° 1.4 mm 4 mps 736 mmHg 91%
    03:00 +4°C° 1.1 mm 4 mps 736 mmHg 91%
    04:00 +4°C° 1.1 mm 4 mps 735 mmHg 90%
    05:00 +4°C° 1.1 mm 4 mps 735 mmHg 90%
    06:00 +3°C° 0.5 mm 4 mps 735 mmHg 90%
    07:00 +3°C° 0.5 mm 3 mps 735 mmHg 90%
    08:00 +3°C° 0.5 mm 3 mps 735 mmHg 89%
    09:00 +3°C° 0.1 mm 3 mps 736 mmHg 89%
    10:00 +3°C° 0.1 mm 3 mps 736 mmHg 88%
    11:00 +4°C° 0.1 mm 2 mps 736 mmHg 87%
    12:00 +4°C° 0 mm 2 mps 737 mmHg 86%
    13:00 +4°C° 0 mm 2 mps 737 mmHg 84%
    14:00 +4°C° 0 mm 2 mps 737 mmHg 83%
    15:00 +4°C° 0 mm 2 mps 738 mmHg 85%
    16:00 +4°C° 0 mm 2 mps 738 mmHg 86%
    17:00 +3°C° 0 mm 2 mps 739 mmHg 88%
    18:00 +4°C° 0 mm 1 mps 740 mmHg 88%
    19:00 +4°C° 0 mm 1 mps 740 mmHg 88%
    20:00 +4°C° 0 mm 1 mps 741 mmHg 88%
    21:00 +3°C° 0 mm 1 mps 741 mmHg 89%
    22:00 +3°C° 0 mm 1 mps 741 mmHg 89%
    23:00 +3°C° 0 mm 1 mps 742 mmHg 90%

    Pasado mañana, 20 Noviembre, Martes

    Tiempo Temperatura Precipitaciones Viento Presión Humedad
    00:00 +3°C° 0 mm 1 mps 742 mmHg 90%
    01:00 +3°C° 0 mm 1 mps 742 mmHg 90%
    02:00 +3°C° 0 mm 1 mps 742 mmHg 89%
    03:00 +3°C° 0 mm 1 mps 742 mmHg 89%
    04:00 +2°C° 0 mm 2 mps 742 mmHg 88%
    05:00 +2°C° 0 mm 2 mps 742 mmHg 88%
    06:00 +1°C° 0 mm 3 mps 743 mmHg 87%
    07:00 +2°C° 0 mm 3 mps 743 mmHg 86%
    08:00 +2°C° 0 mm 3 mps 743 mmHg 85%
    09:00 +3°C° 0.2 mm 3 mps 743 mmHg 83%
    10:00 +3°C° 0.2 mm 3 mps 743 mmHg 80%
    11:00 +4°C° 0.2 mm 4 mps 743 mmHg 78%
    12:00 +5°C° 0.1 mm 4 mps 743 mmHg 78%
    13:00 +5°C° 0.1 mm 4 mps 742 mmHg 78%
    14:00 +7°C° 0.1 mm 3 mps 742 mmHg 78%
    15:00 +7°C° 0.2 mm 3 mps 741 mmHg 82%
    16:00 +7°C° 0.2 mm 3 mps 741 mmHg 85%
    17:00 +7°C° 0.2 mm 3 mps 741 mmHg 88%
    18:00 +7°C° 0.3 mm 3 mps 741 mmHg 89%
    19:00 +7°C° 0.3 mm 3 mps 740 mmHg 91%
    20:00 +7°C° 0.3 mm 3 mps 740 mmHg 92%
    21:00 +7°C° 0.5 mm 2 mps 740 mmHg 92%
    22:00 +8°C° 0.5 mm 2 mps 740 mmHg 93%
    23:00 +8°C° 0.5 mm 2 mps 740 mmHg 94%

    21 Noviembre, Miércoles

    Tiempo Temperatura Precipitaciones Viento Presión Humedad
    00:00 +8°C° 0.5 mm 2 mps 739 mmHg 94%
    01:00 +8°C° 0.5 mm 2 mps 739 mmHg 95%
    02:00 +8°C° 0.5 mm 2 mps 738 mmHg 95%
    03:00 +8°C° 0.5 mm 2 mps 737 mmHg 96%
    04:00 +9°C° 0.5 mm 2 mps 737 mmHg 96%
    05:00 +9°C° 0.5 mm 2 mps 736 mmHg 96%
    06:00 +9°C° 0.6 mm 2 mps 736 mmHg 96%
    07:00 +10°C° 0.6 mm 2 mps 735 mmHg 95%
    08:00 +10°C° 0.6 mm 2 mps 735 mmHg 95%
    09:00 +10°C° 0.9 mm 2 mps 734 mmHg 95%
    10:00 +12°C° 0.9 mm 2 mps 734 mmHg 94%
    11:00 +12°C° 0.9 mm 2 mps 734 mmHg 93%
    12:00 +10°C° 1.7 mm 3 mps 734 mmHg 94%
    13:00 +10°C° 1.7 mm 3 mps 733 mmHg 94%
    14:00 +9°C° 1.7 mm 3 mps 733 mmHg 94%
    15:00 +8°C° 0.6 mm 3 mps 733 mmHg 93%
    16:00 +7°C° 0.6 mm 4 mps 734 mmHg 91%
    17:00 +6°C° 0.6 mm 4 mps 734 mmHg 90%
    18:00 +6°C° 0.3 mm 4 mps 735 mmHg 90%
    19:00 +6°C° 0.3 mm 4 mps 735 mmHg 89%
    20:00 +5°C° 0.3 mm 4 mps 736 mmHg 89%
    21:00 +5°C° 0.1 mm 4 mps 736 mmHg 89%
    22:00 +5°C° 0.1 mm 4 mps 737 mmHg 90%
    23:00 +5°C° 0.1 mm 4 mps 737 mmHg 90%

    22 Noviembre, Jueves

    Tiempo Temperatura Precipitaciones Viento Presión Humedad
    00:00 +5°C° 0.1 mm 4 mps 738 mmHg 90%
    01:00 +5°C° 0.1 mm 4 mps 738 mmHg 91%
    02:00 +5°C° 0.1 mm 3 mps 738 mmHg 91%
    03:00 +5°C° 0.1 mm 3 mps 739 mmHg 91%
    04:00 +4°C° 0.1 mm 3 mps 739 mmHg 91%
    05:00 +4°C° 0.1 mm 3 mps 740 mmHg 91%
    06:00 +4°C° 0.1 mm 3 mps 740 mmHg 90%
    07:00 +5°C° 0.1 mm 2 mps 741 mmHg 90%
    08:00 +5°C° 0.1 mm 2 mps 741 mmHg 89%
    09:00 +5°C° 0 mm 2 mps 742 mmHg 87%
    10:00 +5°C° 0 mm 2 mps 742 mmHg 85%
    11:00 +6°C° 0 mm 2 mps 743 mmHg 83%
    12:00 +6°C° 0 mm 2 mps 743 mmHg 81%
    13:00 +7°C° 0 mm 2 mps 743 mmHg 79%
    14:00 +7°C° 0 mm 2 mps 743 mmHg 78%
    15:00 +7°C° 0 mm 2 mps 743 mmHg 80%
    16:00 +6°C° 0 mm 2 mps 744 mmHg 82%
    17:00 +7°C° 0 mm 1 mps 744 mmHg 84%
    18:00 +6°C° 0 mm 1 mps 744 mmHg 85%
    19:00 +6°C° 0 mm 1 mps 745 mmHg 86%
    20:00 +5°C° 0 mm 1 mps 745 mmHg 87%
    21:00 +5°C° 0 mm 1 mps 745 mmHg 88%
    22:00 +5°C° 0 mm 1 mps 746 mmHg 88%
    23:00 +5°C° 0 mm 1 mps 746 mmHg 89%

    23 Noviembre, Viernes

    Tiempo Temperatura Precipitaciones Viento Presión Humedad
    00:00 +4°C° 0 mm 1 mps 746 mmHg 89%
    01:00 +4°C° 0 mm 1 mps 746 mmHg 89%
    02:00 +4°C° 0 mm 1 mps 746 mmHg 89%
    03:00 +4°C° 0 mm 1 mps 746 mmHg 89%
    04:00 +4°C° 0 mm 1 mps 746 mmHg 89%
    05:00 +4°C° 0 mm 1 mps 746 mmHg 89%
    06:00 +4°C° 0 mm 1 mps 747 mmHg 89%
    07:00 +4°C° 0 mm 1 mps 747 mmHg 89%
    08:00 +4°C° 0 mm 1 mps 747 mmHg 89%
    09:00 +5°C° 0 mm 1 mps 748 mmHg 83%
    10:00 +6°C° 0 mm 1 mps 748 mmHg 78%
    11:00 +7°C° 0 mm 1 mps 748 mmHg 72%
    12:00 +8°C° 0 mm 1 mps 748 mmHg 70%
    13:00 +8°C° 0 mm 1 mps 748 mmHg 67%
    14:00 +8°C° 0 mm 2 mps 748 mmHg 65%
    15:00 +8°C° 0 mm 1 mps 748 mmHg 69%
    16:00 +7°C° 0 mm 1 mps 748 mmHg 73%
    17:00 +6°C° 0 mm 1 mps 748 mmHg 77%
    18:00 +6°C° 0 mm 1 mps 748 mmHg 79%
    19:00 +6°C° 0 mm 1 mps 748 mmHg 81%
    20:00 +5°C° 0 mm 1 mps 748 mmHg 82%
    21:00 +5°C° 0 mm 1 mps 748 mmHg 83%
    22:00 +5°C° 0 mm 1 mps 748 mmHg 84%
    23:00 +4°C° 0 mm 1 mps 748 mmHg 84%
    Mostrar más